Weather History for Ohio State University, OH

Change the Weather History Date:

Friday, November 1, 2013

  Actual Average Record
Temperature  
Mean Temperature 57 °F -  
Max Temperature 60 °F 55 °F 75 °F (1999)
Min Temperature 50 °F 37 °F 27 °F (2002)
Degree Days  
Heating Degree Days 8    
Growing Degree Days 7 (Base 50)    
Moisture  
Dew Point 49 °F    
Average Humidity 78    
Maximum Humidity 94    
Minimum Humidity 58    
Precipitation  
Precipitation 0.20 in - - ()
Sea Level Pressure  
Sea Level Pressure 29.57 in    
Wind  
Wind Speed 16 mph (WSW)    
Max Wind Speed 26 mph    
Max Gust Speed 43 mph    
Visibility 9 miles    
Events Rain    
Averages and records for this station are not official NWS values.
T = Trace of Precipitation, MM = Missing Value Source: NWS Daily Summary

Daily Weather History Graph

Daily Weather History Graph

Search for Another Location

Airport:

Trip Planner

Search our weather history database for the weather conditions in past years. The results will help you decide how hot, cold, wet, or windy it might be!

Date:

Astronomy

Nov. 01, 2013 Rise Set
Actual Time 8:01 AM EDT 6:29 PM EDT
Civil Twilight 7:33 AM EDT 6:57 PM EDT
Nautical Twilight 7:01 AM EDT 7:29 PM EDT
Astronomical Twilight 6:29 AM EDT 8:01 PM EDT
Moon 5:52 AM EDT (11/1) 5:21 PM EDT (11/1)
Length of Visible Light 11h 23m
Length of Day
10h 27m
Waning Crescent, 4% of the Moon is Illuminated
Nov 1
Waning Crescent
Nov 3
New
Nov 10
First Quarter
Nov 17
Full
Nov 25
Last Quarter

Hourly Weather History & Observations

Time (EDT) Temp. Dew Point Humidity Pressure Visibility Wind Dir Wind Speed Gust Speed Precip Events Conditions
12:33 AM 64.4 °F 62.6 °F 94% 29.34 in 3.0 mi WSW 26.5 mph 42.6 mph 0.09 in Rain Rain
12:36 AM 62.6 °F 60.8 °F 94% 29.35 in 1.8 mi West 20.7 mph 42.6 mph 0.12 in Rain Heavy Rain
12:39 AM 60.8 °F 57.2 °F 88% 29.37 in 1.8 mi West 21.9 mph 34.5 mph 0.12 in Rain Light Rain
12:43 AM 60.8 °F 55.4 °F 82% 29.38 in 3.0 mi West 23.0 mph 34.5 mph 0.12 in Rain Light Rain
12:50 AM 60.8 °F 55.4 °F 82% 29.38 in 10.0 mi West 18.4 mph 33.4 mph 0.13 in Rain Light Rain
12:53 AM 59.0 °F 54.0 °F 83% 29.37 in 9.0 mi West 16.1 mph 29.9 mph 0.13 in Rain Light Rain
1:53 AM 57.0 °F 55.0 °F 93% 29.42 in 10.0 mi SW 12.7 mph - 0.07 in Rain Light Rain
2:53 AM 57.0 °F 54.0 °F 89% 29.42 in 10.0 mi SW 11.5 mph - 0.00 in   Mostly Cloudy
3:30 AM 57.2 °F 53.6 °F 88% 29.45 in 10.0 mi SW 12.7 mph - N/A   Mostly Cloudy
3:51 AM 57.2 °F 53.6 °F 88% 29.46 in 10.0 mi SW 13.8 mph 24.2 mph N/A   Overcast
3:53 AM 57.0 °F 54.0 °F 89% 29.46 in 10.0 mi SW 13.8 mph 24.2 mph N/A   Overcast
4:05 AM 57.2 °F 53.6 °F 88% 29.46 in 10.0 mi SW 17.3 mph 25.3 mph 0.00 in Rain Light Rain
4:32 AM 57.2 °F 53.6 °F 88% 29.48 in 10.0 mi SW 18.4 mph 26.5 mph 0.00 in   Mostly Cloudy
4:42 AM 57.2 °F 51.8 °F 82% 29.49 in 10.0 mi WSW 15.0 mph 25.3 mph 0.00 in   Mostly Cloudy
4:53 AM 57.0 °F 52.0 °F 83% 29.49 in 10.0 mi West 16.1 mph 20.7 mph 0.00 in   Overcast
5:45 AM 51.8 °F 46.4 °F 82% 29.55 in 10.0 mi West 19.6 mph 27.6 mph N/A   Scattered Clouds
5:53 AM 52.0 °F 46.0 °F 80% 29.55 in 10.0 mi West 16.1 mph 27.6 mph N/A   Mostly Cloudy
6:53 AM 51.1 °F 45.0 °F 80% 29.59 in 10.0 mi WSW 11.5 mph - N/A   Partly Cloudy
7:53 AM 50.0 °F 46.0 °F 86% 29.62 in 10.0 mi WSW 10.4 mph - N/A   Mostly Cloudy
8:06 AM 50.0 °F 44.6 °F 82% 29.63 in 10.0 mi WSW 11.5 mph - N/A   Scattered Clouds
8:53 AM 50.0 °F 44.1 °F 80% 29.66 in 10.0 mi WSW 6.9 mph - N/A   Partly Cloudy
9:53 AM 51.1 °F 45.0 °F 80% 29.68 in 10.0 mi SW 11.5 mph - N/A   Scattered Clouds
10:04 AM 51.8 °F 44.6 °F 76% 29.69 in 10.0 mi SW 12.7 mph 21.9 mph N/A   Mostly Cloudy
10:53 AM 52.0 °F 45.0 °F 77% 29.68 in 10.0 mi SW 12.7 mph 21.9 mph N/A   Scattered Clouds
11:10 AM 53.6 °F 44.6 °F 72% 29.68 in 10.0 mi SW 16.1 mph - N/A   Mostly Cloudy
11:53 AM 54.0 °F 44.1 °F 69% 29.68 in 10.0 mi SW 13.8 mph - N/A   Mostly Cloudy
12:53 PM 55.0 °F 44.1 °F 67% 29.68 in 10.0 mi SW 16.1 mph 23.0 mph N/A   Scattered Clouds
1:53 PM 57.0 °F 44.1 °F 62% 29.67 in 10.0 mi SW 12.7 mph - N/A   Mostly Cloudy
2:53 PM 59.0 °F 44.1 °F 58% 29.65 in 10.0 mi WSW 10.4 mph - N/A   Mostly Cloudy
3:53 PM 57.9 °F 43.0 °F 58% 29.65 in 10.0 mi WSW 13.8 mph - N/A   Mostly Cloudy
4:53 PM 59.0 °F 44.1 °F 58% 29.65 in 10.0 mi WSW 9.2 mph - N/A   Mostly Cloudy
5:53 PM 57.0 °F 44.1 °F 62% 29.66 in 10.0 mi WSW 5.8 mph - N/A   Overcast
6:53 PM 55.9 °F 44.1 °F 64% 29.67 in 10.0 mi Calm Calm - N/A   Overcast
7:53 PM 54.0 °F 45.0 °F 72% 29.69 in 10.0 mi NW 4.6 mph - N/A   Overcast
8:53 PM 54.0 °F 44.1 °F 69% 29.70 in 10.0 mi WNW 5.8 mph - N/A   Overcast
9:53 PM 53.1 °F 44.1 °F 71% 29.71 in 10.0 mi WNW 6.9 mph - N/A   Overcast
10:53 PM 52.0 °F 44.1 °F 74% 29.73 in 10.0 mi WNW 6.9 mph - N/A   Overcast
11:53 PM 51.1 °F 43.0 °F 74% 29.73 in 10.0 mi West 5.8 mph - N/A   Overcast